577  
ASUS41 KOKX 212310  
RWROKX  
 
REGIONAL WEATHER ROUNDUP  
NATIONAL WEATHER SERVICE NEW YORK NY  
700 PM EDT FRI JUN 21 2024  
 
NOTE: "FAIR" INDICATES FEW OR NO CLOUDS BELOW 12,000 FEET WITH NO  
SIGNIFICANT WEATHER AND/OR S TO VISIBILITY
.  
 
NYZ071-072-176-178-NJZ106-104-220000-  
NEW YORK CITY METRO AREA  
 
CITY SKY/WX TMP DP RH WIND PRES REMARKS
 
CENTRAL PARK MOSUNNY 87 66 49 CALM 30.09R  
WORLD TRD CTR NOT AVBL  
BRONX LEHMAN C N/A 81 72 74 N8 N/A  
LAGUARDIA ARPT PTSUNNY 88 63 43 S13 30.05R  
QUEENS COLLEGE N/A 81 66 61 S13 N/A  
KENNEDY INTL PTSUNNY 76 67 73 S17 30.08R  
BREEZY POINT N/A N/A N/A N/A S13 N/A  
BROOKLYN COLL N/A 81 66 61 S7 N/A  
STATEN ISLAND N/A 91 66 43 SW7 N/A HX 94  
NEWARK/LIBERTY PTSUNNY 97 64 33 W9 30.04R HX 99  
TETERBORO PTSUNNY 83 71 67 N14G26 30.07R  

 
 
NYZ177-179-078>081-220000-  
LONG ISLAND NEW YORK  
 
CITY SKY/WX TMP DP RH WIND PRES REMARKS
 
JONES BEACH N/A 72 N/A N/A S12G18 N/A  
WANTAGH N/A 75 70 83 SW7 N/A  
HEMPSTEAD NOT AVBL  
MATINECOCK PT N/A 79 N/A N/A N16 N/A  
FARMINGDALE MOSUNNY 79 67 66 SW12 30.09R  
MACARTHUR/ISP PTSUNNY 78 69 73 SW10 30.10R  
STONY BROOK N/A 81 68 65 N6 N/A  
SHIRLEY PTSUNNY 79 67 66 SW9G21 30.11S  
MT SINAI HARB N/A N/A N/A N/A W3 N/A  
WESTHAMPTON MOSUNNY 78 68 71 SW9G16 30.12S  
EAST HAMPTON PTSUNNY 76 65 70 SW6 30.10S  
SOUTHOLD N/A 79 70 73 W2 N/A  
MONTAUK N/A 78 69 73 CALM 30.12S  

 
 
NYZ052-065-067-220000-  
HUDSON VALLEY  
 
CITY SKY/WX TMP DP RH WIND PRES REMARKS
 
WHITE PLAINS LGT RAIN 77 72 84 N10 30.12R  
LARCHMONT HARB N/A N/A N/A N/A N2 N/A  
CROTON ON HUDS N/A 75 N/A N/A NE8G15 N/A  
SOMERS N/A 73 72 94 NW7G22 N/A  
BREWSTER N/A 73 72 94 SE1 N/A  
NEWBURGH CLOUDY 73 72 94 SE5 30.12S  
MONTGOMERY PTSUNNY 74 71 91 CALM 30.11S  
OTISVILLE N/A 73 72 94 SE5 N/A  
WARWICK N/A 73 72 94 E6 N/A  
SUFFERN N/A 75 72 88 NE1 N/A  
POUGHKEEPSIE MOSUNNY 74 71 91 SE3 30.10R  
ALBANY PTSUNNY 78 71 79 N6 30.11R  

 
 
NJZ001-105-106-008-010-013-015-019>022-104-220000-  
NEW JERSEY  
 
CITY SKY/WX TMP DP RH WIND PRES REMARKS
 
NEWARK/LIBERTY PTSUNNY 97 64 33 W9 30.04R HX 99  
TETERBORO PTSUNNY 83 71 67 N14G26 30.07R  
CALDWELL PTSUNNY 86 69 56 VRB7G22 30.09R HX 90  
SOMERVILLE MOSUNNY 93 68 43 SW5 30.04S HX 97  
LINDEN MOSUNNY 95 62 33 W7 30.06R HX 95  
PERTH AMBOY N/A 91 N/A N/A SW10 N/A  
SUSSEX MOSUNNY 77 70 79 N7 30.12R  
ANDOVER N/A 79 70 74 NE7G22 30.11R  
TRENTON MOSUNNY 91 66 43 SW7 30.06S HX 93  
MILLVILLE SUNNY 82 67 60 S8 30.11S  
ATLANTIC CITY SUNNY 84 66 54 S14 30.11S  
WRIGHTSTOWN SUNNY 93 62 35 SW12 30.06S HX 93  
TOMS RIVER SUNNY 88 71 57 S8 30.09R HX 94  
BELMAR SUNNY 88 74 63 SE7 30.09R HX 96  

 
 
PAZ047>061-062-071-220000-  
EASTERN PENNSYLVANIA  
 
CITY SKY/WX TMP DP RH WIND PRES REMARKS
 
PHILADELPHIA MOSUNNY 92 62 36 SW10 30.08S HX 92  
ALLENTOWN MOSUNNY 92 62 36 SW9 30.06F HX 92  
SCRANTON MOSUNNY 85 70 60 CALM 30.09S  

 
 
CTZ002-004>006-009-010-012-RIZ004-006-007-MAZ004-011-015-220000-  
SOUTHERN NEW ENGLAND  
 
IN CT  
 
CITY SKY/WX TMP DP RH WIND PRES REMARKS
 
BRADLEY INTL CLOUDY 75 71 87 NE5 30.11F  
HARTFORD LGT RAIN 73 71 93 SE3 30.11S  
DANBURY LGT RAIN 75 71 87 NW5 30.15R  
WTRBURY/OXFORD LGT RAIN 70 70 100 E5 30.15R  
NORWALK HARBOR N/A N/A N/A N/A NE13 N/A  
BRIDGEPORT LGT RAIN 77 72 84 N8 30.12R  
MERIDEN LGT RAIN 74 69 85 S3 30.12R  
NEW HAVEN LGT RAIN 76 72 87 NW6 30.13S FOG  
CHESTER LGT RAIN 72 72 100 CALM 30.14S  
GROTON TSTM 75 71 87 N13 30.14R  
WILLIMANTIC TSTM 73 71 93 E3 30.15S FOG  
 
IN RI  
 
CITY SKY/WX TMP DP RH WIND PRES REMARKS
 
PROVIDENCE TSTM 74 71 91 CALM 30.14R FOG  
BLOCK ISLAND SUNNY 71 68 90 S9 N/A  
WESTERLY MOSUNNY 72 67 84 E5 30.13R  
 
IN MA  
 
CITY SKY/WX TMP DP RH WIND PRES REMARKS
 
BOSTON HVY RAIN 66 61 84 VRB3 30.17R  
WORCESTER RAIN 68 65 90 E7 30.19R FOG  
WESTFIELD MOSUNNY 75 72 90 CALM 30.11F  
PROVINCETOWN SUNNY 67 64 90 E6 30.15R  
NANTUCKET SUNNY 70 68 93 SE5 30.13R  

 
 
ANZ330-335-338-340-345-350-353-355-220000-  
COASTAL MARINE OBSERVATIONS  
 
 
STATION/POSITION TIME SKY/WX TEMP WIND PRES VSBY WAVE
 
AIR SEA DIR/SP/G HT/PER  
(UTC) (F) (DEG/KT/KT) (MB) (MI) (FT/S)  
NY HARB ENTRANCE 2250 72 71 200/ 19/ 23 1018.2 4/ 4  
20 S FIRE ISLAND 2250 73 71 200/ 16/ 19 1019.3 3/ 5  
GREAT SOUTH BAY NOT AVBL  
23 SSW MONTAUK P NOT AVBL  
15 E BARNEGAT LI 2256 73 N/A 4/ 4  
HUDSON CANYON NOT AVBL  
KINGS POINT 2224 79 67 160/ 14/ 16 1017.9  
EXECUTION ROCKS NOT AVBL  
WESTERN LI SOUND NOT AVBL  
CENTRAL LI SOUND NOT AVBL  
ROBBINS REEF 2224 81 170/ 16/ 18 1017.5  

 
 
>>>>>>>>>>>>>>>>>>>>>>>>>>>> KEY <<<<<<<<<<<<<<<<<<<<<<<<<<<  
> <  
> SKY/WX - SKY CONDITION/PRESENT WEATHER <  
> TMP - TEMPERATURE IN FAHRENHEIT <  
> DP - DEW POINT IN FAHRENHEIT <  
> RH - RELATIVE HUMIDITY IN PERCENT <  
> WIND - DIRECTION (FROM) AND SPEED IN MPH <  
> PRES - MEAN SEA LEVEL PRESSURE (INCHES OF HG) <  
> WCI - WIND CHILL INDEX <  
> VSB - VISIBILITY IN MILES <  
> HX - HEAT INDEX <  
> TC - TEMPERATURE IN CELSIUS <  
> VRB - VARIABLE WIND DIRECTION <  
> <  
>>>>>>>>>>>>>>>>>>>>>>>>>>>> KEY <<<<<<<<<<<<<<<<<<<<<<<<<<<  
 
 
CLICK HERE TO GO TO PREVIOUS BULLETINS.

The Nexlab NY Page
The Nexlab NJ Page
The Nexlab CT Page Main Text Page